Weather in Kvashnino

Russia / Jewish Autonomous Oblast     47°46′44″N   132°07′46″E
temp.,
°C
wind,
m/s
gust,
m/s
humid.,
%
clouds,
%
prec.,
mm/h
press.,
hPa
HPBL,
m
26 february, fri
fri2601:00−21wnw468425 0.0 102689
04:00−21wnw468746 0.0 1026100
07:00−21wnw348558 0.0 102766
10:00−19wnw378134 0.0 1029298
13:00−15wnw367211 0.0 1029442
16:00−13nw24755 0.0 1029279
19:00−16nw12790 0.0 103122
22:00−17w23790 0.0 103220
27 february, sat
sat2701:00−19wnw22840 0.0 103320
04:00−20sw118717 0.0 103320
07:00−20s239043 0.0 103320
10:00−17se238758 0.0 1033128
13:00−13se4779100 0.0 1030396
16:00−10sse61180100 0.0 1025571
19:00−11se41187100 0.0 1022335
22:00−10sse3789100 0.1 1020200
28 february, sun
sun2801:00−9s2590100 0.0 1017144
04:00−8w2295100 0.2 101653
07:00−10wnw3694100 0.3 1018147
10:00−8wnw4790100 0.3 1020202
13:00−6wnw5777100 0.0 1023674
16:00−8nw6866100 0.0 1024780
19:00−12wnw51073100 0.0 1026236
22:00−15nw51076100 0.0 1029187
1 march, mon
mon101:00−18nw478533 0.0 1031123
04:00−19wnw468517 0.0 103392
07:00−21wnw34820 0.0 103463
10:00−18wnw36790 0.0 1036192
13:00−14wnw35710 0.0 1035418
16:00−12wsw35650 0.0 1033767
19:00−16ssw237821 0.0 103320
22:00−16nnw229560 0.2 103439
2 march, tue
tue201:00−20n228199 0.3 103420
04:00−22nw237852 0.3 103420
07:00−23nnw22760 0.0 103420
10:00−21n11730 0.0 103376
13:00−17wnw11630 0.0 1031231
16:00−15wsw12610 0.0 1030315
19:00−18ssw22750 0.0 102920
22:00−19s23780 0.0 102920